Location: Kingston, Ontario, Canada
(44.2796°N, 76.5445°W)
Time: 07:52:13
(UTC-05:00)

ISS - Visible Passes

Search period start: 18 December 2017 00:00
Search period end: 28 December 2017 00:00
Orbit: 402 x 406 km, 51.6° (Epoch: 18 December)

Date Brightness Start Highest point End Pass type
(mag) Time Alt. Az. Time Alt. Az. Time Alt. Az.
18 Dec -1.1 17:07:54 10° W 17:10:36 24° SW 17:13:19 10° SSE visible
20 Dec 0.1 17:01:23 10° WSW 17:02:13 11° SW 17:03:03 10° SW visible
24 Dec -0.5 07:04:18 10° S 07:06:25 16° SE 07:08:33 10° E visible
26 Dec -2.0 06:54:56 10° SSW 06:57:57 35° SE 07:00:59 10° ENE visible
27 Dec -1.0 06:03:18 10° S 06:05:45 20° SE 06:08:12 10° E visible
